Stündliche Wetter Abqaiq

Heute, 25 Juni, Freitag

Zeit Temperatur Niederschläge Wind Luftdruck Luftfeuchtigkeit
00:00 +35°C° 0 mm 3 m/S 745 mmHg 13%
01:00 +35°C° 0 mm 3 m/S 745 mmHg 13%
02:00 +34°C° 0 mm 4 m/S 745 mmHg 13%
03:00 +34°C° 0 mm 4 m/S 745 mmHg 13%
04:00 +34°C° 0 mm 4 m/S 745 mmHg 13%
05:00 +34°C° 0 mm 3 m/S 745 mmHg 13%
06:00 +34°C° 0 mm 3 m/S 745 mmHg 12%
07:00 +37°C° 0 mm 4 m/S 745 mmHg 11%
08:00 +41°C° 0 mm 4 m/S 745 mmHg 10%
09:00 +45°C° 0 mm 5 m/S 746 mmHg 9%
10:00 +47°C° 0 mm 4 m/S 745 mmHg 8%
11:00 +48°C° 0 mm 4 m/S 745 mmHg 7%
12:00 +50°C° 0 mm 3 m/S 745 mmHg 6%
13:00 +50°C° 0 mm 4 m/S 744 mmHg 6%
14:00 +50°C° 0 mm 5 m/S 744 mmHg 6%
15:00 +52°C° 0 mm 6 m/S 743 mmHg 7%
16:00 +49°C° 0 mm 5 m/S 743 mmHg 8%
17:00 +47°C° 0 mm 4 m/S 743 mmHg 10%
18:00 +44°C° 0 mm 4 m/S 743 mmHg 12%
19:00 +42°C° 0 mm 3 m/S 744 mmHg 16%
20:00 +38°C° 0 mm 3 m/S 744 mmHg 20%
21:00 +36°C° 0 mm 2 m/S 744 mmHg 24%
22:00 +36°C° 0 mm 2 m/S 744 mmHg 24%
23:00 +35°C° 0 mm 2 m/S 744 mmHg 23%

Morgen, 26 Juni, Samstag

Zeit Temperatur Niederschläge Wind Luftdruck Luftfeuchtigkeit
00:00 +35°C° 0 mm 3 m/S 744 mmHg 23%
01:00 +35°C° 0 mm 3 m/S 744 mmHg 21%
02:00 +35°C° 0 mm 3 m/S 743 mmHg 19%
03:00 +35°C° 0 mm 3 m/S 743 mmHg 18%
04:00 +35°C° 0 mm 3 m/S 743 mmHg 17%
05:00 +36°C° 0 mm 4 m/S 744 mmHg 16%
06:00 +36°C° 0 mm 4 m/S 744 mmHg 15%
07:00 +40°C° 0 mm 4 m/S 744 mmHg 12%
08:00 +43°C° 0 mm 4 m/S 744 mmHg 9%
09:00 +47°C° 0 mm 4 m/S 744 mmHg 7%
10:00 +47°C° 0 mm 3 m/S 744 mmHg 6%
11:00 +50°C° 0 mm 3 m/S 744 mmHg 5%
12:00 +50°C° 0 mm 2 m/S 743 mmHg 4%
13:00 +52°C° 0 mm 3 m/S 743 mmHg 4%
14:00 +52°C° 0 mm 3 m/S 742 mmHg 4%
15:00 +52°C° 0 mm 3 m/S 742 mmHg 4%
16:00 +50°C° 0 mm 4 m/S 742 mmHg 7%
17:00 +48°C° 0 mm 4 m/S 742 mmHg 9%
18:00 +45°C° 0 mm 5 m/S 742 mmHg 12%
19:00 +42°C° 0 mm 4 m/S 743 mmHg 16%
20:00 +39°C° 0 mm 3 m/S 743 mmHg 19%
21:00 +36°C° 0 mm 2 m/S 744 mmHg 23%
22:00 +35°C° 0 mm 1 m/S 744 mmHg 23%
23:00 +35°C° 0 mm 1 m/S 743 mmHg 22%

übermorgen, 27 Juni, Sonntag

Zeit Temperatur Niederschläge Wind Luftdruck Luftfeuchtigkeit
00:00 +34°C° 0 mm 1 m/S 743 mmHg 21%
01:00 +34°C° 0 mm 1 m/S 743 mmHg 21%
02:00 +34°C° 0 mm 1 m/S 743 mmHg 21%
03:00 +33°C° 0 mm 1 m/S 743 mmHg 20%
04:00 +34°C° 0 mm 1 m/S 744 mmHg 20%
05:00 +34°C° 0 mm 1 m/S 744 mmHg 20%
06:00 +34°C° 0 mm 1 m/S 745 mmHg 20%
07:00 +37°C° 0 mm 1 m/S 745 mmHg 17%
08:00 +40°C° 0 mm 1 m/S 745 mmHg 14%
09:00 +43°C° 0 mm 2 m/S 746 mmHg 11%
10:00 +46°C° 0 mm 2 m/S 746 mmHg 10%
11:00 +47°C° 0 mm 2 m/S 745 mmHg 9%
12:00 +49°C° 0 mm 2 m/S 745 mmHg 7%
13:00 +50°C° 0 mm 3 m/S 745 mmHg 7%
14:00 +51°C° 0 mm 4 m/S 744 mmHg 7%
15:00 +51°C° 0 mm 4 m/S 744 mmHg 7%
16:00 +49°C° 0 mm 4 m/S 744 mmHg 10%
17:00 +45°C° 0 mm 4 m/S 744 mmHg 14%
18:00 +43°C° 0 mm 4 m/S 745 mmHg 17%
19:00 +41°C° 0 mm 4 m/S 745 mmHg 23%
20:00 +38°C° 0 mm 3 m/S 745 mmHg 29%
21:00 +36°C° 0 mm 2 m/S 746 mmHg 35%
22:00 +35°C° 0 mm 2 m/S 746 mmHg 37%
23:00 +34°C° 0 mm 2 m/S 745 mmHg 40%

28 Juni, Montag

Zeit Temperatur Niederschläge Wind Luftdruck Luftfeuchtigkeit
00:00 +32°C° 0 mm 1 m/S 745 mmHg 42%
01:00 +34°C° 0 mm 2 m/S 745 mmHg 38%
02:00 +34°C° 0 mm 2 m/S 745 mmHg 34%
03:00 +35°C° 0 mm 3 m/S 745 mmHg 30%
04:00 +35°C° 0 mm 3 m/S 745 mmHg 27%
05:00 +36°C° 0 mm 2 m/S 745 mmHg 24%
06:00 +36°C° 0 mm 2 m/S 746 mmHg 22%
07:00 +39°C° 0 mm 2 m/S 746 mmHg 19%
08:00 +41°C° 0 mm 2 m/S 746 mmHg 16%
09:00 +45°C° 0 mm 2 m/S 746 mmHg 13%
10:00 +46°C° 0 mm 2 m/S 746 mmHg 12%
11:00 +48°C° 0 mm 2 m/S 746 mmHg 10%
12:00 +50°C° 0 mm 3 m/S 746 mmHg 9%
13:00 +51°C° 0 mm 3 m/S 745 mmHg 9%
14:00 +51°C° 0 mm 4 m/S 745 mmHg 9%
15:00 +51°C° 0 mm 4 m/S 745 mmHg 9%
16:00 +49°C° 0 mm 4 m/S 745 mmHg 12%
17:00 +46°C° 0 mm 5 m/S 745 mmHg 16%
18:00 +43°C° 0 mm 5 m/S 745 mmHg 20%
19:00 +41°C° 0 mm 4 m/S 745 mmHg 26%
20:00 +38°C° 0 mm 4 m/S 746 mmHg 31%
21:00 +36°C° 0 mm 3 m/S 746 mmHg 37%
22:00 +36°C° 0 mm 3 m/S 745 mmHg 34%
23:00 +36°C° 0 mm 3 m/S 745 mmHg 31%

29 Juni, Dienstag

Zeit Temperatur Niederschläge Wind Luftdruck Luftfeuchtigkeit
00:00 +35°C° 0 mm 2 m/S 744 mmHg 29%
01:00 +35°C° 0 mm 2 m/S 744 mmHg 27%
02:00 +35°C° 0 mm 2 m/S 744 mmHg 25%
03:00 +34°C° 0 mm 2 m/S 744 mmHg 23%
04:00 +35°C° 0 mm 2 m/S 745 mmHg 21%
05:00 +36°C° 0 mm 2 m/S 745 mmHg 19%
06:00 +36°C° 0 mm 2 m/S 745 mmHg 17%
07:00 +39°C° 0 mm 2 m/S 746 mmHg 15%
08:00 +41°C° 0 mm 2 m/S 746 mmHg 13%
09:00 +43°C° 0 mm 1 m/S 746 mmHg 11%
10:00 +45°C° 0 mm 1 m/S 746 mmHg 10%
11:00 +46°C° 0 mm 1 m/S 746 mmHg 9%
12:00 +48°C° 0 mm 1 m/S 745 mmHg 8%
13:00 +50°C° 0 mm 3 m/S 745 mmHg 8%
14:00 +50°C° 0 mm 4 m/S 744 mmHg 9%
15:00 +52°C° 0 mm 5 m/S 744 mmHg 9%
16:00 +49°C° 0 mm 5 m/S 744 mmHg 12%
17:00 +45°C° 0 mm 4 m/S 744 mmHg 15%
18:00 +43°C° 0 mm 4 m/S 744 mmHg 18%
19:00 +41°C° 0 mm 4 m/S 744 mmHg 22%
20:00 +38°C° 0 mm 3 m/S 745 mmHg 26%
21:00 +36°C° 0 mm 2 m/S 745 mmHg 30%
22:00 +35°C° 0 mm 2 m/S 745 mmHg 30%
23:00 +35°C° 0 mm 2 m/S 744 mmHg 30%

30 Juni, Mittwoch

Zeit Temperatur Niederschläge Wind Luftdruck Luftfeuchtigkeit
00:00 +35°C° 0 mm 2 m/S 744 mmHg 30%
01:00 +34°C° 0 mm 2 m/S 744 mmHg 28%
02:00 +33°C° 0 mm 1 m/S 744 mmHg 26%
03:00 +33°C° 0 mm 1 m/S 744 mmHg 24%
04:00 +35°C° 0 mm 2 m/S 744 mmHg 22%
05:00 +36°C° 0 mm 2 m/S 745 mmHg 19%
06:00 +37°C° 0 mm 2 m/S 745 mmHg 17%
07:00 +39°C° 0 mm 2 m/S 745 mmHg 15%
08:00 +42°C° 0 mm 1 m/S 746 mmHg 12%
09:00 +44°C° 0 mm 1 m/S 746 mmHg 10%
10:00 +47°C° 0 mm 2 m/S 745 mmHg 9%
11:00 +48°C° 0 mm 2 m/S 745 mmHg 8%
12:00 +51°C° 0 mm 3 m/S 745 mmHg 7%
13:00 +51°C° 0 mm 3 m/S 744 mmHg 7%
14:00 +52°C° 0 mm 4 m/S 744 mmHg 7%
15:00 +52°C° 0 mm 4 m/S 743 mmHg 7%
16:00 +49°C° 0 mm 4 m/S 743 mmHg 10%
17:00 +47°C° 0 mm 5 m/S 743 mmHg 13%
18:00 +43°C° 0 mm 5 m/S 744 mmHg 17%
19:00 +41°C° 0 mm 4 m/S 744 mmHg 20%
20:00 +38°C° 0 mm 2 m/S 744 mmHg 23%
21:00 +35°C° 0 mm 1 m/S 744 mmHg 26%
22:00 +37°C° 0 mm 2 m/S 744 mmHg 24%
23:00 +37°C° 0 mm 2 m/S 743 mmHg 22%
Mehr zeigen

Wir brauchen deine Erlaubnis

Meteoprog und unser Service Anbieter werden persönliche Daten aufbewahren, so wie Cookies, Geräte Bezeichnung oder ähnliche Technologien von deinem Gerät und Prozess, so wie Persönliche Daten Inhalte und Werbungen, genauso wie social Media und den Verkehr zu analysieren.

  • Aufbewahrung und/oder Zugang zu deiner Geräte Informationen.

    Cookies, Geräte Bezeichnung oder andere Informationen, können aufbewahrt oder Zugang zu deinem Gerät erhalten, für den Grund, der oben angegeben wird.

  • Personalisierte Werbung und Inhalte, Messungen, Einblick in das Publikum und Produkt Entwicklung.

    Werbungen und Inhalte können personalisiert werden, basierend auf ein Profil. Mehr Daten können besser personalisierte Werbungen und Inhalte hinzufügen. Werbung und Inhalte können gezeigt und gemessen werden. Einblicke über das Publikum, welche die Werbung gesehen haben und den Inhalt, können abgeleitet werden. So wie Daten können genutzt werden, um es zu verbessern oder die Benutzer Erfahrung zu verbessern das System und die Software.

Wenn du “Ich stimme zu” klickst, erlaubst du uns, die Cookies zu benutzen die Geräte Bezeichnung, den Web oder ähnliche Technologien zu benutzen. Deine Settings, können in deinem Gerät bei deinem Browser geändert werden.

Für den bestimmten Zweck, berechtigten Interessen beruhen darauf, mehr als auf den Inhalt. Du kannst mehr darüber in unseren Privaten und Cookie Politik lesen.